Weather in Pap

Uzbekistan     40°52′30″N   71°05′49″E
temp.,
°C
wind,
m/s
gust,
m/s
humid.,
%
clouds,
%
prec.,
mm/h
press.,
hPa
HPBL,
m
18 april, sun
sun1823:00+18nnw1132100 0.0 101517
02:00+16nne3337100 0.0 101550
05:00+15ne0141100 0.0 101613
08:00+16w1237100 0.0 1018351
11:00+18sse1233100 0.0 10191681
14:00+19s3429100 0.1 10182338
17:00+19sw233187 0.1 10171674
20:00+17sw023818 0.0 101935
19 april, mon
mon1923:00+15nne35469 0.0 1019126
02:00+13ne365562 0.0 1020163
05:00+12nne3355100 0.0 102039
08:00+15ene344398 0.0 1019676
11:00+18e3336100 0.0 10171734
14:00+20se333038 0.0 10142076
17:00+20sse322887 0.0 10121921
20:00+18sse1134100 0.0 101323
20 april, tue
tue2023:00+17nw113699 0.0 101213
02:00+16se1139100 0.0 101111
05:00+15nw0142100 0.0 101111
08:00+17sse113453 0.0 1012305
11:00+19sse3230100 0.0 10111242
14:00+22ssw4526100 0.0 10082221
17:00+22wnw4421100 0.0 10062303
20:00+18wnw61136100 0.1 1008937
21 april, wed
wed2123:00+15w5645100 0.1 1008194
02:00+14w1347100 0.1 1010104
05:00+12ne246793 0.1 1011241
08:00+12wnw4565100 1.0 1012527
11:00+13wsw5116399 4.6 1011937
14:00+13sw696697 3.3 1011495
17:00+17sw693964 3.3 10091199
20:00+12wsw46590 0.0 1013165
22 april, thu
thu2223:00+10wnw23470 0.1 101554
02:00+9nw22522 0.0 1016189
05:00+7nnw22430 0.0 101823
08:00+10ene44460 0.0 1021528
11:00+13ese43422 0.0 10231404
14:00+15sse323417 0.0 10231744
17:00+16s22291 0.0 10231605
20:00+14s11360 0.0 102427